Regional Weather Roundup
Issued by NWS

Home | Current Version | Previous Version | Text Only | Print | Product List | Glossary Off
Versions: 1 2 3 4 5 6 7 8 9 10 11 12 13 14 15 16 17 18 19 20 21 22 23 24 25 26 27 28 29 30 31 32 33 34 35 36 37 38 39 40 41 42 43 44 45 46 47 48 49 50

639
ASUS43 KLOT 231104
RWRIL

ILLINOIS REGIONAL WEATHER ROUNDUP
NATIONAL WEATHER SERVICE CHICAGO/ROMEOVILLE IL
600 AM CDT SUN JUL 23 2017

NOTE: "FAIR" INDICATES FEW OR NO CLOUDS BELOW 12,000 FEET WITH NO
SIGNIFICANT WEATHER AND/OR OBSTRUCTIONS TO VISIBILITY.

* THESE STATIONS ARE NOT UNDER NWS QUALITY CONTROL. THEY ALSO MAY NOT
  REPORT WEATHER SUCH AS PRECIPITATION OR FOG.

ILZ001-002-007-009-015-016-024-231200-
NORTHWEST ILLINOIS

CITY           SKY/WX    TMP DP  RH WIND       PRES   REMARKS
MOLINE         CLOUDY    74  71  91 SW6       29.85R
STERLING*      PTCLDY    73  72  96 W7        29.82S FOG
SAVANNA*       FOG       69  68  99 CALM      29.83R VSB 1/4
$$

ILZ003-004-008-010-011-017-018-231200-
NORTH CENTRAL ILLINOIS

CITY           SKY/WX    TMP DP  RH WIND       PRES   REMARKS
ROCKFORD       MOCLDY    73  71  93 NW5       29.83R
FREEPORT*      CLEAR     70  69  99 W5        29.84S FOG
ROCHELLE*      PTCLDY    72  72  99 W3        29.83R FOG
DE KALB*       CLOUDY    73  73  98 W8        29.82S FOG
PERU*          CLOUDY   N/A N/A N/A W8        29.82S HAZE
$$

ILZ005-006-012>014-019>023-231200-
NORTHEAST ILLINOIS

CITY           SKY/WX    TMP DP  RH WIND       PRES   REMARKS
CHICAGO-OHARE  PTCLDY    72  69  90 CALM      29.80R
CHICAGO-MIDWAY PTCLDY    74  70  87 CALM      29.80R
AURORA         CLOUDY    73  73 100 CALM      29.81R FOG
LANSING*       MOCLDY    72  68  88 W3        29.81R
JOLIET*        CLOUDY    75  73  92 E3        29.81R
WAUKEGAN       CLOUDY    71  70  96 CALM      29.79R
DUPAGE AIRPORT CLOUDY    70  70 100 CALM      29.80R
WHEELING       CLEAR     73  72  96 S3        29.81R
MORRIS*        MOCLDY    74  73  96 CALM      29.79S
ROMEOVILLE*    CLOUDY    72  70  91 CALM      29.80S FOG
NORTHERLY ISL    N/A     73  69  87 CALM        N/A
$$

LMZ740>746-231200-
SOUTHERN LAKE MICHIGAN

STATION/POSITION SKY/WX   TEMP    WIND        PRES    VSBY  WAVE
                          AIR SEA DIR/SP/G                  HT/PER
                          (F)     (DEG/KT/KT) (MB)    (MI)  (FT/S)
SOUTHERN BUOY              70 70   80/  4/  4 1008.7          0
WILMETTE HARBOR            72 73  190/  2/  4   N/A           0
HARRISON CRIB              75     330/  1/  2   N/A
BURNHAM HARBOR             73                   N/A
CALUMET HARBOR             73     180/  2/  3 1008.6R
BURNS HARBOR               73     290/  2/  2 1009.5S
MICHIGAN CITY              72      20/  4/  4   N/A
MICHIGAN CITY 6N           73 75  360/  2/  2   N/A           0
ST. JOSEPH                 72 74  150/  2/  2 1008.8R         0
$$

ILZ025>027-034>036-040-047-049-050-058-095>099-231200-
WEST-CENTRAL ILLINOIS

CITY           SKY/WX    TMP DP  RH WIND       PRES   REMARKS
QUINCY         CLOUDY    73  65  75 W3        29.88F
MACOMB*        CLOUDY    75  74  97 W7        29.89F
JACKSONVILLE*  CLOUDY    71  66  85 SW6       29.90F
PITTSFIELD*    LGT RAIN  71  68  90 N6        29.89F
$$

ILZ028>032-037-038-041>044-048-051>054-059>061-231200-
CENTRAL ILLINOIS

CITY           SKY/WX    TMP DP  RH WIND       PRES   REMARKS
PONTIAC        CLOUDY    75  74  98 W6        29.83S
BLOOMINGTON    CLOUDY    75  73  93 W8        29.87R
DECATUR        CLOUDY    78  75  90 W10G20    29.88R HX  81
PEORIA         CLOUDY    76  76 100 W7        29.85R
LACON*         CLOUDY    75  74  98 CALM      29.83R
LINCOLN*       CLOUDY    78  78  99 W5        29.87R HX  81
SPRINGFIELD    LGT RAIN  76  70  82 W16G24    29.91R
TAYLORVILLE    TSTM      70  67  88 W17G23    29.92R
$$

ILZ033-039-045-046-055>057-062-063-231200-
EAST-CENTRAL ILLINOIS

CITY           SKY/WX    TMP DP  RH WIND       PRES   REMARKS
CHAMPAIGN      CLOUDY    76  75  97 W6        29.85R FOG
RANTOUL*       CLOUDY    76  76  99 W7        29.84R
MATTOON        CLOUDY    76  75  97 W9        29.84R
PARIS*         MOCLDY    71  71 100 CALM      29.83R
$$

ILZ079-100>102-231200-
SOUTHWEST ILLINOIS

CITY           SKY/WX    TMP DP  RH WIND       PRES   REMARKS
ALTON          LGT RAIN  69  64  83 NW15G25   29.83F
BELLEVILLE     CLOUDY    73  65  77 NW13G20   29.87S
CAHOKIA*       CLOUDY    75  62  64 N12       29.86F
SPARTA*        CLOUDY    72  67  85 NW9       29.90S
$$

ILZ064>066-069>071-074>076-080>082-084>086-088>090-092>094-231200-
SOUTH-CENTRAL ILLINOIS

CITY           SKY/WX    TMP DP  RH WIND       PRES   REMARKS
CARBONDALE     CLOUDY    72  69  90 NW12G22   29.90R
CAIRO*         MOCLDY    80  75  86 W7        29.87R HX  84
EFFINGHAM*     TSTM      71  71 100 W21G29    29.89R
MARION         CLOUDY    75  70  83 N9G21     29.89S
MT. VERNON     CLOUDY    71  68  90 VRB5      29.85S
CENTRALIA*     CLOUDY    71  70  98 N6        29.87S THUNDER
SALEM*         CLOUDY    72  69  91 N10G17    29.85F THUNDER
METROPOLIS*    MOCLDY    81  75  83 W7        29.86R HX  87
$$

ILZ067-068-072-073-078-083-087-091-231200-
SOUTHEAST ILLINOIS

CITY           SKY/WX    TMP DP  RH WIND       PRES   REMARKS
LAWRENCEVILLE  CLOUDY    74  72  93 W10       29.83R
FAIRFIELD*     TSTM      69  69 100 NW5       29.85F
HARRISBURG*    RAIN      76  72  88 NW25G32   29.84R
ROBINSON*      CLOUDY    72  72  99 S6        29.82R
CARMI*         TSTM      72  71  97 NW15G21   29.80R
$$

ABBREVIATIONS USED IN REMARKS
   TC - TEMPERATURE IN CELSIUS
  WCI - WIND CHILL INDEX
   HX - HEAT INDEX
  VSB - VISIBILITY
$$





USA.gov is the U.S. government's official web portal to all federal, state and local government web resources and services.